Location: Gollag?dem
(17.0207°N, 80.7261°E)
Time: 05:52:46
(UTC+00:00)

Milstar 3 - Pass Details

Date: 03 August 2024
Orbit: 1098 x 5146 km, 28.2° (Epoch: 08 September)

Event Time Altitude Azimuth Distance (km) Brightness Sun altitude
Rises 16:52:42 0° 296° (WNW) 3,942 6.3 -46.2°
Reaches altitude 10° 16:55:13 10° 302° (WNW) 3,085 5.6 -46.6°
Enters shadow 16:58:55 32° 324° (NW) 2,088 4.4 -47.2°
